Location: Unspecified
(0.0000°N, 0.0000°E)
Time: 01:53:54
(UTC+00:00)

Vanguard 2 Rocket - Pass Details

Date: 14 December 2017
Orbit: 556 x 3326 km, 32.9° (Epoch: 21 January)

Event Time Altitude Azimuth Distance (km) Brightness Sun altitude
Rises 05:51:53 0° 279° (W) 6,478 10.6 -0.6°
Reaches altitude 10° 05:57:59 10° 267° (W) 4,964 10.1 0.8°
Maximum altitude 06:07:30 23° 221° (SW) 3,076 9.5 3.0°
Drops below altitude 10° 06:14:01 10° 171° (S) 3,256 10.3 4.4°
Sets 06:17:03 0° 155° (SSE) 3,867 11.0 5.1°
